TimeMDT,TemperatureF,Dew PointF,Humidity,Sea Level PressureIn,VisibilityMPH,Wind Direction,Wind SpeedMPH,Gust SpeedMPH,PrecipitationIn,Events,Conditions,WindDirDegrees,DateUTC
12:51 AM,57.9,37.0,46,29.94,10.0,NNE,3.5,-,N/A,,Clear,30,2013-07-30 06:51:00
1:51 AM,55.9,39.9,55,29.95,10.0,Calm,Calm,-,N/A,,Clear,0,2013-07-30 07:51:00
2:51 AM,57.0,37.0,47,29.96,10.0,NNE,3.5,-,N/A,,Mostly Cloudy,30,2013-07-30 08:51:00
3:51 AM,63.0,36.0,37,29.96,10.0,Variable,6.9,-,0.00,,Overcast,0,2013-07-30 09:51:00
4:51 AM,59.0,37.0,44,29.96,10.0,SW,5.8,-,0.00,,Scattered Clouds,220,2013-07-30 10:51:00
5:51 AM,55.0,37.0,51,29.98,10.0,Calm,Calm,-,N/A,,Clear,0,2013-07-30 11:51:00
6:51 AM,53.1,36.0,52,29.99,10.0,Calm,Calm,-,N/A,,Clear,0,2013-07-30 12:51:00
7:51 AM,53.1,37.9,57,30.03,10.0,Calm,Calm,-,N/A,,Clear,0,2013-07-30 13:51:00
8:51 AM,59.0,39.9,49,30.05,10.0,Calm,Calm,-,N/A,,Partly Cloudy,0,2013-07-30 14:51:00
9:51 AM,64.9,39.9,40,30.05,10.0,South,4.6,-,N/A,,Partly Cloudy,180,2013-07-30 15:51:00
10:51 AM,70.0,39.9,33,30.04,10.0,SSW,4.6,-,N/A,,Clear,200,2013-07-30 16:51:00
11:51 AM,75.0,37.0,25,30.06,10.0,Variable,3.5,-,N/A,,Clear,0,2013-07-30 17:51:00
12:51 PM,78.1,37.0,23,30.05,10.0,Variable,5.8,-,N/A,,Clear,0,2013-07-30 18:51:00
1:51 PM,80.1,33.1,18,30.05,10.0,South,12.7,-,N/A,,Clear,190,2013-07-30 19:51:00
2:51 PM,82.0,30.9,16,30.04,10.0,SW,11.5,-,N/A,,Clear,220,2013-07-30 20:51:00
3:51 PM,80.1,28.0,15,30.03,10.0,SSE,10.4,20.7,N/A,,Clear,160,2013-07-30 21:51:00
4:51 PM,81.0,25.0,13,30.03,10.0,SE,3.5,-,N/A,,Clear,140,2013-07-30 22:51:00
5:51 PM,81.0,25.0,13,30.04,10.0,WSW,9.2,-,N/A,,Clear,240,2013-07-30 23:51:00
6:51 PM,79.0,21.0,12,30.04,10.0,NW,3.5,-,N/A,,Clear,310,2013-07-31 00:51:00
7:51 PM,78.1,21.0,12,30.04,10.0,Calm,Calm,-,N/A,,Clear,0,2013-07-31 01:51:00
8:51 PM,75.9,32.0,20,30.04,10.0,ESE,6.9,-,N/A,,Clear,110,2013-07-31 02:51:00
9:51 PM,69.1,36.0,30,30.06,10.0,Calm,Calm,-,N/A,,Clear,0,2013-07-31 03:51:00
10:51 PM,68.0,37.0,32,30.06,10.0,North,3.5,-,N/A,,Clear,10,2013-07-31 04:51:00
11:51 PM,62.1,39.0,43,30.06,10.0,Calm,Calm,-,N/A,,Clear,0,2013-07-31 05:51:00